Regional Weather Roundup
Issued by NWS Upton, NY

Home | Current Version | Previous Version | Text Only | Print | Product List | Glossary On
Versions: 1 2 3 4 5 6 7 8 9 10 11 12 13 14 15 16 17 18 19 20 21 22 23 24 25 26 27
000
ASUS41 KOKX 220509
RWROKX

REGIONAL WEATHER ROUNDUP
NATIONAL WEATHER SERVICE NEW YORK NY
100 AM EDT SAT JUL 22 2017

NOTE: "FAIR" INDICATES FEW OR NO CLOUDS BELOW 12,000 FEET WITH NO
SIGNIFICANT WEATHER AND/OR OBSTRUCTIONS TO VISIBILITY.

NYZ071-072-176-178-NJZ106-104-220600-
NEW YORK CITY METRO AREA

CITY           SKY/WX    TMP DP  RH WIND       PRES   REMARKS
Central Park   CLOUDY    84  69  60 VRB3      29.89F
Bronx Bot Gard   N/A     84  68  58 W3        29.87F
LaGuardia APRT MOCLDY    88  71  57 W13       29.85F HX  94
Kennedy INTL   MOCLDY    82  74  76 SW9       29.88S
Breezy Point     N/A     77 N/A N/A SW5         N/A
Newark/Liberty MOCLDY    84  70  62 W9        29.86F
Teterboro      PTCLDY    84  69  60 W3        29.86S
$$

NYZ177-179-078>081-220600-
LONG ISLAND NEW YORK

CITY           SKY/WX    TMP DP  RH WIND       PRES   REMARKS
Jones Beach      N/A     77 N/A N/A SW5         N/A
Matinecock PT    N/A     82 N/A N/A SW6         N/A
Farmingdale    CLOUDY    80  73  79 SW5       29.87F
MacArthur/ISP  CLOUDY    78  74  87 SW6       29.86F
Shirley        MOCLDY    79  74  84 W3        29.87S
Mt Sinai Harb    N/A    N/A N/A N/A SW6         N/A
Westhampton    MOCLDY    77  71  82 SW3       29.88F
East Hampton   FAIR      76  71  83 W3        29.86S
Montauk          N/A     78  71  79 SW6       29.87S
$$

NYZ052-065-067-220600-
HUDSON VALLEY

CITY           SKY/WX    TMP DP  RH WIND       PRES   REMARKS
White Plains   MOCLDY    81  70  69 SW7       29.88S
Larchmont Harb   N/A     84 N/A N/A SW7         N/A
Croton O-T Hud   N/A     79 N/A N/A MISG        N/A
Newburgh       MOCLDY    75  72  88 W8        29.91R
Montgomery     CLOUDY    75  69  81 W6        29.89S
Poughkeepsie   CLOUDY    74  68  81 NW5       29.88R
Albany         MOCLDY    72  58  61 S3        29.89R
$$

NJZ001-105-106-008-010-013-015-019>022-104-220600-
NEW JERSEY

CITY           SKY/WX    TMP DP  RH WIND       PRES   REMARKS
Newark/Liberty MOCLDY    84  70  62 W9        29.86F
Teterboro      PTCLDY    84  69  60 W3        29.86S
Caldwell       CLOUDY    78  70  76 N3        29.88S
Somerville     MOCLDY    74  73  97 CALM      29.87S FOG
Linden         FAIR      82  69  63 W6        29.88S
Perth Amboy      N/A     82 N/A N/A W7          N/A
Sussex         CLOUDY    72  71  97 CALM      29.90S
Andover          N/A     74  71  91 CALM      29.91S
Trenton        PTCLDY    81  72  74 CALM      29.89S
Millville      CLOUDY    77  77 100 CALM      29.89F FOG
Atlantic City  CLOUDY    77  74  90 CALM      29.90S FOG
Wrightstown    CLOUDY    77  71  82 CALM      29.87S
Toms River     CLOUDY    77  72  84 SW3       29.90S HAZE
Belmar         CLOUDY    79  71  76 SW6       29.90F
$$

PAZ047>061-062-071-220600-
EASTERN PENNSYLVANIA

CITY           SKY/WX    TMP DP  RH WIND       PRES   REMARKS
Philadelphia   CLOUDY    82  73  74 CALM      29.89F
Allentown      CLOUDY    77  70  79 W5        29.89F
Scranton       MOCLDY    73  71  93 CALM      29.94R
$$

CTZ002-004>006-009-010-012-RIZ004-006-007-MAZ004-011-015-220600-
SOUTHERN NEW ENGLAND
 IN CT

CITY           SKY/WX    TMP DP  RH WIND       PRES   REMARKS
Bradley INTL   PTCLDY    75  67  76 NW7       29.87R
Hartford       PTCLDY    77  67  71 N6        29.86R
Danbury        MOCLDY    77  70  79 NW3       29.89S
Wtrbury/Oxford PTCLDY    73  64  73 N3        29.90S
Bridgeport     MOCLDY    80  71  74 W5        29.85F
Meriden        PTCLDY    73  70  90 CALM      29.87R
New Haven      CLOUDY    79  71  76 CALM      29.86S
Chester        FAIR      75  70  83 CALM      29.88S
Groton         CLOUDY    76  70  82 SW3       29.85S
Wilimantic     PTCLDY    73  70  90 CALM      29.87R

 IN RI

CITY           SKY/WX    TMP DP  RH WIND       PRES   REMARKS
Providence     PTCLDY    75  70  84 SW6       29.85S
Block Island   CLOUDY    73  69  87 SW12      29.86F
Westerly       CLOUDY    76  70  82 W5        29.86S
 IN MA

CITY           SKY/WX    TMP DP  RH WIND       PRES   REMARKS
Boston         PTCLDY    79  59  50 W14G22    29.82S
Worcester      MOCLDY    72  58  61 NW10      29.89S
Westfield      PTCLDY    69  68  96 CALM      29.87R
Provincetown   PTCLDY    73  67  81 W12       29.82S
Nantucket      CLEAR     73  72  96 W14       29.84S
$$

ANZ330-335-338-340-345-350-353-355-220600-
COASTAL MARINE OBSERVATIONS


STATION/POSITION TIME  SKY/WX   TEMP    WIND        PRES    VSBY  WAVE
                                AIR SEA DIR/SP/G                  HT/PER
                 (UTC)          (F)     (DEG/KT/KT) (MB)    (MI)  (FT/S)
NY HARB ENTRANCE 0350            78 76  210/  8/  8 1011.5          2/ 6
20 S FIRE ISLAND 0450            78 76  220/ 10/ 12 1011.3          2/ 6
GREAT SOUTH BAY  0430            80 83  260/ 12/ 14   N/A
23 SSW MONTAUK P 0350            78 76              1011.7          3/ 6
15 E BARNEGAT LI 0430               78                N/A           3/11
HUDSON CANYON    0350            80 80  230/  8/ 10 1012.0          2/ 6
KINGS POINT      0424            82 72  280/  5/  7 1011.1
EXECUTION ROCKS  0445            81     250/  6/  8   N/A
CENTRAL LI SOUND 0415            78     220/  8/ 10   N/A           1
EASTERN LI SOUND NOT AVBL
ROBBINS REEF     0424                   240/ 10/ 12 1012.1
$$


>>>>>>>>>>>>>>>>>>>>>>>>>>>> KEY <<<<<<<<<<<<<<<<<<<<<<<<<<<
>                                                          <
>     SKY/WX - Sky Condition/Present Weather               <
>     TMP    - Temperature in Fahrenheit                   <
>     DP     - Dew Point in Fahrenheit                     <
>     RH     - Relative Humidity in Percent                <
>     WIND   - Direction (from) and Speed in MPH           <
>     PRES   - Mean Sea Level Pressure (inches of Hg)      <
>     WCI    - Wind Chill Index                            <
>     VSB    - VISIBILITY IN MILES                         <
>     HX     - HEAT INDEX                                  <
>     TC     - TEMPERATURE IN CELSIUS                      <
>     VRB    - VARIABLE WIND DIRECTION                     <
>                                                          <
>>>>>>>>>>>>>>>>>>>>>>>>>>>> KEY <<<<<<<<<<<<<<<<<<<<<<<<<<<




USA.gov is the U.S. government's official web portal to all federal, state and local government web resources and services.